EW6304 Weather Reports


Display with metric or nautical units.
time (UTC)temp
F
wind
direction
speed
MPH
gust
MPH
rain 1hr
in
rain 24hr
in
rain mn
in
humidity
%
barometer
mb
20260905120036 67 288 2.0 5.0 0.00 0.00 0.00 85 1008.2
20260905115535 66 296 2.0 4.0 0.00 0.00 0.00 86 1008.1
20260905115033 66 276 2.0 4.0 0.00 0.00 0.00 86 1008.1
20260905114534 65 295 2.0 4.0 0.00 0.00 0.00 87 1008.1
20260905114038 65 280 1.0 3.0 0.00 0.00 0.00 88 1008.1
20260905114032 65 281 1.0 3.0 0.00 0.00 0.00 87 1008.2
20260905113032 64 288 1.0 3.0 0.00 0.00 0.00 88 1008.1
20260905112532 64 266 1.0 3.0 0.00 0.00 0.00 89 1008.1
20260905112033 64 266 1.0 3.0 0.00 0.00 0.00 89 1008.0
20260905111533 63 278 0.0 2.0 0.00 0.00 0.00 89 1008.0
20260905111033 63 278 1.0 2.0 0.00 0.00 0.00 89 1007.9
20260905110538 63 288 1.0 2.0 0.00 0.00 0.00 89 1007.6
20260905110532 63 278 1.0 2.0 0.00 0.00 0.00 89 1007.8
20260905105539 63 286 1.0 3.0 0.00 0.00 0.00 89 1007.6
20260905105534 63 287 1.0 3.0 0.00 0.00 0.00 89 1007.6
20260905104533 63 286 1.0 3.0 0.00 0.00 0.00 89 1007.5
20260905104033 63 306 1.0 3.0 0.00 0.00 0.00 89 1007.5
20260905103532 63 296 1.0 3.0 0.00 0.00 0.00 88 1007.5
20260905103033 63 293 1.0 3.0 0.00 0.00 0.00 88 1007.5
20260905102532 63 296 1.0 3.0 0.00 0.00 0.00 88 1007.5
20260905102032 63 296 1.0 3.0 0.00 0.00 0.00 88 1007.5
20260905101533 63 277 1.0 2.0 0.00 0.00 0.00 88 1007.5
20260905101033 63 277 1.0 2.0 0.00 0.00 0.00 88 1007.5
20260905100531 63 277 1.0 2.0 0.00 0.00 0.00 88 1007.5
20260905100033 63 276 1.0 3.0 0.00 0.00 0.00 88 1007.5
20260905095533 63 276 1.0 3.0 0.00 0.00 0.00 88 1007.5
20260905095031 63 274 1.0 2.0 0.00 0.00 0.00 88 1007.5
20260905094530 63 274 1.0 2.0 0.00 0.00 0.00 87 1007.4
20260905094030 63 274 1.0 2.0 0.00 0.00 0.00 87 1007.4
20260905093532 63 263 1.0 2.0 0.00 0.00 0.00 87 1007.4
20260905093032 63 263 1.0 2.0 0.00 0.00 0.00 87 1007.4
20260905092531 63 262 1.0 2.0 0.00 0.00 0.00 87 1007.4
20260905092034 64 262 0.0 2.0 0.00 0.00 0.00 86 1007.4
20260905092028 64 262 1.0 2.0 0.00 0.00 0.00 87 1007.4
20260905091028 64 279 1.0 3.0 0.00 0.00 0.00 86 1007.4
20260905090529 64 281 1.0 3.0 0.00 0.00 0.00 86 1007.4
20260905090028 64 279 1.0 3.0 0.00 0.00 0.00 86 1007.4
20260905085647 64 269 1.0 3.0 0.00 0.00 0.00 85 1007.3
20260905085535 64 269 1.0 3.0 0.00 0.00 0.00 85 1007.3
20260905085528 64 273 0.0 2.0 0.00 0.00 0.00 85 1007.4
20260905084029 64 279 1.0 3.0 0.00 0.00 0.00 85 1007.3
20260905083528 65 278 1.0 3.0 0.00 0.00 0.00 85 1007.3
20260905083028 65 277 1.0 3.0 0.00 0.00 0.00 84 1007.4
20260905082529 65 260 1.0 3.0 0.00 0.00 0.00 84 1007.3
20260905082028 65 297 2.0 4.0 0.00 0.00 0.00 84 1007.2
20260905081528 65 298 2.0 4.0 0.00 0.00 0.00 84 1007.3
20260905081028 65 309 2.0 3.0 0.00 0.00 0.00 84 1007.4
20260905080534 65 307 2.0 5.0 0.00 0.00 0.00 84 1007.3
20260905080529 65 306 2.0 5.0 0.00 0.00 0.00 84 1007.4
20260905075527 65 302 2.0 5.0 0.00 0.00 0.00 84 1007.3
20260905075026 65 265 2.0 5.0 0.00 0.00 0.00 84 1007.3
20260905074531 65 286 1.0 3.0 0.00 0.00 0.00 83 1007.3
20260905074526 65 287 1.0 3.0 0.00 0.00 0.00 84 1007.3
20260905073526 65 286 2.0 4.0 0.00 0.00 0.00 83 1007.3
20260905073026 66 278 2.0 4.0 0.00 0.00 0.00 83 1007.3
20260905072528 66 238 1.0 4.0 0.00 0.00 0.00 83 1007.3
20260905072026 66 258 1.0 3.0 0.00 0.00 0.00 83 1007.3
20260905071526 66 263 1.0 3.0 0.00 0.00 0.00 83 1007.4
20260905071029 66 289 1.0 2.0 0.00 0.00 0.00 83 1007.4
20260905071025 66 288 1.0 2.0 0.00 0.00 0.00 83 1007.5
20260905070025 66 289 1.0 3.0 0.00 0.00 0.00 82 1007.5
20260905065523 66 289 1.0 3.0 0.00 0.00 0.00 82 1007.5
20260905065025 66 314 1.0 2.0 0.00 0.00 0.00 82 1007.6
20260905064525 66 314 1.0 3.0 0.00 0.00 0.00 82 1007.8
20260905064023 67 314 1.0 3.0 0.00 0.00 0.00 81 1007.9
20260905063530 67 314 2.0 4.0 0.00 0.00 0.00 81 1007.9
20260905063525 67 314 2.0 3.0 0.00 0.00 0.00 81 1007.9
20260905062523 67 319 2.0 4.0 0.00 0.00 0.00 81 1007.9
20260905062025 67 288 1.0 3.0 0.00 0.00 0.00 81 1007.9
20260905061531 67 281 2.0 4.0 0.00 0.00 0.00 81 1007.9
20260905061526 67 287 2.0 3.0 0.00 0.00 0.00 81 1007.9
20260905061129 67 285 2.0 4.0 0.00 0.00 0.00 81 1007.9
20260905060022 67 325 2.0 4.0 0.00 0.00 0.00 81 1007.9
20260905055528 67 258 1.0 4.0 0.00 0.00 0.00 81 1008.0
20260905055522 67 243 1.0 4.0 0.00 0.00 0.00 81 1008.0
20260905054528 67 249 1.0 4.0 0.00 0.00 0.00 81 1007.9
20260905054522 67 254 1.0 4.0 0.00 0.00 0.00 81 1007.9
20260905054021 67 272 0.0 2.0 0.00 0.00 0.00 82 1008.0
20260905053018 68 272 1.0 3.0 0.00 0.00 0.00 80 1007.9
20260905052518 68 272 1.0 3.0 0.00 0.00 0.00 80 1007.9
20260905052022 68 273 1.0 2.0 0.00 0.00 0.00 80 1007.9
20260905052018 68 273 1.0 2.0 0.00 0.00 0.00 80 1007.9
20260905051016 68 273 1.0 2.0 0.00 0.00 0.00 79 1007.9
20260905050515 68 275 2.0 3.0 0.00 0.00 0.00 79 1008.0
20260905050015 68 277 2.0 4.0 0.00 0.00 0.00 79 1007.8
20260905045520 68 288 2.0 3.0 0.00 0.00 0.00 79 1007.9
20260905045515 68 297 2.0 4.0 0.00 0.00 0.00 79 1007.7
20260905045014 68 248 2.0 3.0 0.00 0.00 0.00 79 1007.8
20260905044009 68 280 2.0 3.0 0.00 0.00 0.00 79 1007.9
20260905043514 68 279 2.0 4.0 0.00 0.00 0.00 80 1007.9
20260905043509 68 284 2.0 4.0 0.00 0.00 0.00 80 1007.9
20260905042514 68 285 2.0 4.0 0.00 0.00 0.00 80 1007.9
20260905042507 68 284 1.0 3.0 0.00 0.00 0.00 80 1008.0
20260905041507 68 273 2.0 4.0 0.00 0.00 0.00 80 1007.9
20260905041014 68 264 1.0 3.0 0.00 0.00 0.00 80 1007.9
20260905041008 68 293 1.0 3.0 0.00 0.00 0.00 80 1007.9
20260905040008 69 261 1.0 3.0 0.00 0.00 0.00 80 1007.9
20260905035510 69 261 1.0 2.0 0.00 0.00 0.00 80 1007.9
20260905035009 69 261 1.0 2.0 0.00 0.00 0.00 80 1007.9
20260905034507 69 261 1.0 4.0 0.00 0.00 0.00 80 1008.0
20260905034009 69 261 1.0 4.0 0.00 0.00 0.00 81 1007.9
20260905033512 69 302 1.0 3.0 0.00 0.00 0.00 81 1007.9
20260905033507 69 281 1.0 4.0 0.00 0.00 0.00 81 1007.9
20260905032508 68 302 1.0 3.0 0.00 0.00 0.00 82 1008.0
20260905032007 68 302 1.0 3.0 0.00 0.00 0.00 84 1008.1
20260905031505 67 305 1.0 3.0 0.00 0.00 0.00 85 1008.0
20260905031006 67 267 0.0 2.0 0.00 0.00 0.00 87 1008.0
20260905030509 67 267 1.0 3.0 0.00 0.00 0.00 89 1007.9
20260905030505 67 267 1.0 3.0 0.00 0.00 0.00 88 1008.0
20260905025505 66 282 1.0 2.0 0.00 0.00 0.00 90 1008.0
20260905025008 66 282 1.0 2.0 0.00 0.00 0.00 91 1007.9
20260905024506 66 282 1.0 2.0 0.00 0.00 0.00 92 1007.9
20260905024013 66 282 0.0 1.0 0.00 0.00 0.00 91 1007.9
20260905024007 66 282 0.0 1.0 0.00 0.00 0.00 92 1008.0
20260905023625 66 282 0.0 1.0 0.00 0.00 0.00 92 1007.9
20260905022511 67 282 0.0 1.0 0.00 0.00 0.00 91 1008.0
20260905022506 67 282 0.0 1.0 0.00 0.00 0.00 92 1007.9
20260905021508 67 282 0.0 1.0 0.00 0.00 0.00 91 1008.0
20260905021006 67 282 0.0 0.0 0.00 0.00 0.00 91 1008.1
20260905020510 67 282 0.0 1.0 0.00 0.00 0.00 91 1008.1
20260905020505 67 282 0.0 1.0 0.00 0.00 0.00 91 1008.1
20260905020123 67 282 0.0 0.0 0.00 0.00 0.00 90 1008.3
20260905015012 68 282 0.0 0.0 0.00 0.00 0.00 90 1008.3
20260905015005 67 282 0.0 0.0 0.00 0.00 0.00 90 1008.3
20260905014004 68 282 0.0 0.0 0.00 0.00 0.00 90 1008.4
20260905013511 68 282 0.0 1.0 0.00 0.00 0.00 90 1008.4
20260905013506 68 282 0.0 0.0 0.00 0.00 0.00 90 1008.5
20260905013122 68 282 0.0 1.0 0.00 0.00 0.00 89 1008.4
20260905012003 68 282 0.0 1.0 0.00 0.00 0.00 89 1008.4
20260905011505 69 282 0.0 0.0 0.00 0.00 0.00 88 1008.5
20260905011003 69 282 0.0 1.0 0.00 0.00 0.00 88 1008.5
20260905010505 69 282 0.0 1.0 0.00 0.00 0.00 88 1008.5
20260905010004 69 283 0.0 0.0 0.00 0.00 0.00 87 1008.6
20260905005504 69 283 0.0 0.0 0.00 0.00 0.00 87 1008.5
20260905005001 70 283 0.0 1.0 0.00 0.00 0.00 86 1008.5
20260905004502 70 283 0.0 1.0 0.00 0.00 0.00 86 1008.4
20260905004001 70 282 0.0 0.0 0.00 0.00 0.00 85 1008.4
20260905003501 70 282 0.0 0.0 0.00 0.00 0.00 84 1008.3
20260905003002 71 282 0.0 0.0 0.00 0.00 0.00 83 1008.3
20260905002501 71 282 0.0 0.0 0.00 0.00 0.00 83 1008.3
20260905002002 71 282 0.0 0.0 0.00 0.00 0.00 82 1008.3
20260905001507 72 282 0.0 0.0 0.00 0.00 0.00 80 1008.1
20260905001502 71 282 0.0 0.0 0.00 0.00 0.00 81 1008.2
20260905000502 72 282 0.0 0.0 0.00 0.00 0.00 80 1008.1
20260905000006 72 282 0.0 0.0 0.00 0.00 0.00 78 1008.1
20260905000001 72 282 0.0 0.0 0.00 0.00 0.00 79 1008.2
20260904235001 73 282 0.0 1.0 0.00 0.00 0.00 76 1008.1
20260904234505 74 282 0.0 1.0 0.00 0.00 0.00 74 1007.8
20260904234500 73 282 0.0 1.0 0.00 0.00 0.00 75 1007.9
20260904233459 75 282 0.0 1.0 0.00 0.00 0.00 74 1007.7
20260904232958 75 282 0.0 1.0 0.00 0.00 0.00 72 1007.7
20260904232459 76 282 0.0 1.0 0.00 0.00 0.00 70 1007.6
20260904232007 77 282 0.0 1.0 0.00 0.00 0.00 67 1007.6
20260904232002 76 282 0.0 1.0 0.00 0.00 0.00 68 1007.6
20260904230958 77 282 0.0 1.0 0.00 0.00 0.00 66 1007.5
20260904230457 78 282 0.0 2.0 0.00 0.00 0.00 65 1007.4
20260904225957 78 282 0.0 2.0 0.00 0.00 0.00 65 1007.5
20260904225455 79 273 0.0 1.0 0.00 0.00 0.00 63 1007.4
20260904225000 80 273 1.0 2.0 0.00 0.00 0.00 60 1007.5
20260904224956 79 273 1.0 2.0 0.00 0.00 0.00 64 1007.5
20260904223955 80 273 0.0 3.0 0.00 0.00 0.00 58 1007.4
20260904223454 80 273 0.0 3.0 0.00 0.00 0.00 60 1007.4
20260904222952 81 273 1.0 3.0 0.00 0.00 0.00 57 1007.4
20260904222453 81 273 2.0 6.0 0.00 0.00 0.00 56 1007.4
20260904221951 82 271 2.0 6.0 0.00 0.00 0.00 54 1007.3
20260904221457 83 296 2.0 8.0 0.00 0.00 0.00 54 1007.2
20260904221452 82 246 1.0 4.0 0.00 0.00 0.00 54 1007.3
20260904221108 83 270 2.0 8.0 0.00 0.00 0.00 53 1007.2
20260904215956 83 245 3.0 7.0 0.00 0.00 0.00 53 1007.2
20260904215952 83 297 2.0 7.0 0.00 0.00 0.00 53 1007.2
20260904214948 83 294 3.0 6.0 0.00 0.00 0.00 53 1007.2
20260904214450 83 274 3.0 7.0 0.00 0.00 0.00 53 1007.1
20260904213948 83 273 2.0 7.0 0.00 0.00 0.00 53 1007.2
20260904213448 83 244 2.0 7.0 0.00 0.00 0.00 55 1007.2
20260904212948 82 218 2.0 7.0 0.00 0.00 0.00 55 1007.1
20260904212455 82 320 2.0 4.0 0.00 0.00 0.00 55 1007.2
20260904212449 82 293 2.0 7.0 0.00 0.00 0.00 55 1007.1
20260904211450 82 300 2.0 8.0 0.00 0.00 0.00 54 1007.1
20260904210948 82 313 3.0 8.0 0.00 0.00 0.00 54 1007.2
20260904210452 83 327 2.0 6.0 0.00 0.00 0.00 54 1007.2
20260904205948 83 261 1.0 5.0 0.00 0.00 0.00 55 1007.2
20260904205450 83 277 2.0 6.0 0.00 0.00 0.00 56 1007.1
20260904204949 83 309 2.0 6.0 0.00 0.00 0.00 57 1007.2
20260904204449 83 281 2.0 7.0 0.00 0.00 0.00 56 1007.1
20260904203950 83 304 3.0 7.0 0.00 0.00 0.00 55 1007.1
20260904203449 83 300 2.0 7.0 0.00 0.00 0.00 55 1007.1
20260904202949 83 261 2.0 4.0 0.00 0.00 0.00 57 1007.2
20260904202450 83 234 2.0 4.0 0.00 0.00 0.00 57 1007.2
20260904201949 84 110 1.0 3.0 0.00 0.00 0.00 57 1007.2
20260904201448 84 173 1.0 7.0 0.00 0.00 0.00 56 1007.2
20260904200948 84 294 2.0 7.0 0.00 0.00 0.00 56 1007.3
20260904200443 84 290 1.0 6.0 0.00 0.00 0.00 57 1007.2
20260904195949 84 22 3.0 9.0 0.00 0.00 0.00 56 1007.0
20260904195943 84 333 2.0 7.0 0.00 0.00 0.00 55 1007.1
20260904194949 84 300 2.0 7.0 0.00 0.00 0.00 60 1007.0
20260904194944 83 273 2.0 9.0 0.00 0.00 0.00 54 1007.1
20260904193942 84 300 3.0 7.0 0.00 0.00 0.00 56 1007.1
20260904193442 84 308 2.0 6.0 0.00 0.00 0.00 58 1007.1
20260904192943 84 307 1.0 4.0 0.00 0.00 0.00 57 1007.1
20260904192442 83 306 2.0 7.0 0.00 0.00 0.00 58 1007.1
20260904191943 83 287 3.0 9.0 0.00 0.00 0.00 56 1007.1
20260904191441 83 257 3.0 9.0 0.00 0.00 0.00 54 1007.2
20260904190943 83 309 3.0 8.0 0.00 0.00 0.00 55 1007.3
20260904190443 83 240 4.0 8.0 0.00 0.00 0.00 56 1007.3
20260904185938 84 266 5.0 11.0 0.00 0.00 0.00 54 1007.3
20260904185438 84 290 4.0 11.0 0.00 0.00 0.00 53 1007.2
20260904184938 85 299 2.0 7.0 0.00 0.00 0.00 54 1007.1
20260904184436 84 281 3.0 9.0 0.00 0.00 0.00 54 1007.1
20260904183937 83 269 3.0 9.0 0.00 0.00 0.00 55 1007.2
20260904183437 83 240 2.0 8.0 0.00 0.00 0.00 54 1007.2
20260904182936 83 248 2.0 8.0 0.00 0.00 0.00 57 1007.2
20260904182441 83 270 2.0 9.0 0.00 0.00 0.00 57 1007.3
20260904182437 83 233 3.0 9.0 0.00 0.00 0.00 57 1007.3
20260904181437 83 300 2.0 4.0 0.00 0.00 0.00 58 1007.4
20260904180936 83 262 3.0 8.0 0.00 0.00 0.00 61 1007.4
20260904180436 83 258 3.0 8.0 0.00 0.00 0.00 57 1007.4
20260904175941 83 312 2.0 7.0 0.00 0.00 0.00 59 1007.5
20260904175936 83 293 3.0 7.0 0.00 0.00 0.00 58 1007.4
20260904174936 83 248 2.0 8.0 0.00 0.00 0.00 59 1007.5
20260904174434 83 65 3.0 8.0 0.00 0.00 0.00 60 1007.5
20260904173935 83 290 4.0 8.0 0.00 0.00 0.00 60 1007.4
20260904173439 83 298 2.0 8.0 0.00 0.00 0.00 58 1007.4
20260904173435 83 306 3.0 8.0 0.00 0.00 0.00 59 1007.5
20260904172437 83 278 3.0 10.0 0.00 0.00 0.00 58 1007.6
20260904171934 83 280 3.0 10.0 0.00 0.00 0.00 58 1007.7
20260904171439 83 276 2.0 5.0 0.00 0.00 0.00 62 1007.6
20260904171434 83 284 2.0 8.0 0.00 0.00 0.00 62 1007.6
20260904170432 83 284 3.0 7.0 0.00 0.00 0.00 61 1007.6
20260904165934 83 267 3.0 8.0 0.00 0.00 0.00 62 1007.8
20260904165433 82 333 2.0 8.0 0.00 0.00 0.00 62 1007.8
20260904164933 82 307 3.0 8.0 0.00 0.00 0.00 64 1007.9
20260904164438 82 267 3.0 7.0 0.00 0.00 0.00 64 1007.9
20260904164433 82 293 3.0 8.0 0.00 0.00 0.00 64 1007.8
20260904163433 81 253 4.0 9.0 0.00 0.00 0.00 64 1007.9
20260904162933 81 261 3.0 9.0 0.00 0.00 0.00 65 1007.9
20260904162442 82 347 3.0 9.0 0.00 0.00 0.00 67 1008.0
20260904162435 82 229 2.0 7.0 0.00 0.00 0.00 64 1008.0
20260904161430 81 286 4.0 10.0 0.00 0.00 0.00 67 1008.1
20260904160931 81 261 3.0 10.0 0.00 0.00 0.00 65 1008.2
20260904160431 81 281 3.0 8.0 0.00 0.00 0.00 67 1008.2
20260904155933 80 321 3.0 9.0 0.00 0.00 0.00 69 1008.2
20260904155928 80 311 3.0 8.0 0.00 0.00 0.00 68 1008.2
20260904154928 80 274 2.0 9.0 0.00 0.00 0.00 69 1008.2
20260904154429 80 282 2.0 4.0 0.00 0.00 0.00 71 1008.3
20260904153933 79 302 2.0 8.0 0.00 0.00 0.00 72 1008.3
20260904153927 80 273 2.0 5.0 0.00 0.00 0.00 71 1008.3
20260904152928 79 267 2.0 8.0 0.00 0.00 0.00 72 1008.3
20260904152427 78 284 2.0 7.0 0.00 0.00 0.00 72 1008.3
20260904151928 78 273 2.0 6.0 0.00 0.00 0.00 73 1008.4
20260904151428 78 283 3.0 7.0 0.00 0.00 0.00 73 1008.4
20260904150927 78 252 2.0 7.0 0.00 0.00 0.00 73 1008.5
20260904150429 78 266 2.0 8.0 0.00 0.00 0.00 76 1008.5
20260904145929 77 306 2.0 8.0 0.00 0.00 0.00 75 1008.6
20260904145433 77 336 3.0 8.0 0.00 0.00 0.00 79 1008.5
20260904145429 77 247 2.0 7.0 0.00 0.00 0.00 77 1008.6
20260904145044 76 290 3.0 8.0 0.00 0.00 0.00 79 1008.7
20260904143924 76 288 2.0 7.0 0.00 0.00 0.00 81 1008.8
20260904143424 75 273 1.0 4.0 0.00 0.00 0.00 84 1008.8
20260904142925 75 246 2.0 7.0 0.00 0.00 0.00 84 1008.8
20260904142425 74 282 2.0 7.0 0.00 0.00 0.00 87 1008.8
20260904141924 73 304 1.0 3.0 0.00 0.00 0.00 89 1008.9
20260904141424 73 299 1.0 4.0 0.00 0.00 0.00 91 1008.9
20260904140923 72 287 2.0 5.0 0.00 0.00 0.00 92 1008.9
20260904140426 71 290 2.0 5.0 0.00 0.00 0.00 94 1008.9
20260904135924 71 284 1.0 4.0 0.00 0.00 0.00 95 1008.9
20260904135425 70 258 1.0 4.0 0.00 0.00 0.00 96 1008.8
20260904134926 70 277 1.0 3.0 0.00 0.00 0.00 96 1009.0
20260904134425 70 304 1.0 3.0 0.00 0.00 0.00 97 1009.0
20260904133925 70 302 1.0 3.0 0.00 0.00 0.00 97 1009.0
20260904133429 70 269 1.0 4.0 0.00 0.00 0.00 97 1008.9
20260904133424 70 280 1.0 3.0 0.00 0.00 0.00 97 1009.0
20260904132425 69 269 2.0 4.0 0.00 0.00 0.00 97 1008.9
20260904131928 69 258 2.0 3.0 0.00 0.00 0.00 97 1009.1
20260904131923 69 286 2.0 3.0 0.00 0.00 0.00 97 1009.0
20260904130922 69 278 2.0 3.0 0.00 0.00 0.00 97 1009.2
20260904130423 68 270 1.0 3.0 0.00 0.00 0.00 97 1009.1
20260904125923 68 286 1.0 3.0 0.00 0.00 0.00 97 1009.1
20260904125428 68 283 2.0 4.0 0.00 0.00 0.00 97 1009.1
20260904125424 68 287 2.0 4.0 0.00 0.00 0.00 97 1009.1
20260904124430 68 279 1.0 4.0 0.00 0.00 0.00 97 1009.1
20260904124424 68 281 1.0 3.0 0.00 0.00 0.00 97 1009.1
20260904124041 68 278 1.0 4.0 0.00 0.00 0.00 97 1009.1
20260904123538 67 254 1.0 3.0 0.00 0.00 0.00 97 1009.3
20260904122420 67 54 1.0 2.0 0.00 0.00 0.00 97 1009.2
20260904121918 67 54 1.0 2.0 0.00 0.01 0.00 97 1009.1
20260904121423 67 55 0.0 1.0 0.00 0.01 0.00 97 1009.1
20260904121419 67 54 0.0 2.0 0.00 0.01 0.00 97 1009.1